User: anonymous   Login
Location: Langangen
(59.1000°N, 9.8000°E)
Time: 11:52:41
(UTC+02:00)
Language:

Iridium 60 - Orbit

View from above orbital plane
View from above orbital plane
View from above satellite
View from above satellite

Ground track
Ground track

The orbit data is extracted from the following two-line orbital elements,

1 25276U 98019E   17114.66992855 -.00000002 +00000-0 -77319-5 0  9999
2 25276 086.3919 309.3681 0002019 086.9600 273.1827 14.34215552998188
Epoch (UTC): 24 April 2017 16:04:41
Eccentricity: 0.0002019
inclination: 86.3919°
perigee height: 776 km
apogee height: 779 km
right ascension of ascending node: 309.3681°
argument of perigee: 86.9600°
revolutions per day: 14.34215552
mean anomaly at epoch: 273.1827°
orbit number at epoch: 99818

The dashed part of the orbit path shows where the satellite is in the earth's shadow,  

DLR